If you wish to contribute or participate in the discussions about articles you are invited to join SKYbrary as a registered user

 Actions

Balkhash Airport

From SKYbrary Wiki

UAAH
Airport
ICAO: UAAH – IATA: BXH
Summary
Name Balkhash Airport
Region Asia and Pacific
Territory Kazakhstan KZ.gif
Location Balkhash
Serving Balkhash
Elevation 441 m
1,446.85 ft
1,446.85 ft441 m
Coordinates 46° 53' 36.00" N, 75° 0' 18.00" E
Runways
Designator Length Width Surface ROPS
5/23 2502 m8,208.661 ft
40 m131.234 ft
CON /


METAR
Observation UAAH 180630Z 24004MPS 180V270 9999 FEW030 07/M03 Q1030 NOSIG RMK QFE735/0980
Station Balkhash Airport
Date/Time 18 October 2019 06:30:00
Wind direction 240°
Wind speed kts
Lowest cloud amount few clouds
Temperature 7°C
Dew point
Humidity 48%
QNH 1030 hPa
Weather condition n/a

Description

Balkhash Airport or Balqash Airport is an airport 6 km northeast the city of Balqash in Kazakhstan.